Weather WX

World > North America > United States > Missouri

Iron Gates, Missouri Regional Weather

Lat: 37.06N, Lon: 94.56W
Wx Zone: MOZ088
Warning FLW WEATHER ALERT - (More Info. Click Here) Warning
Feedback

Iron Gates, MO Regional Weather

Expires:201906162000;;173193
ASUS43 KEAX 161910
RWREAX

WEATHER ROUNDUP FOR EASTERN KANSAS AND NORTHWEST MISSOURI
NATIONAL WEATHER SERVICE KANSAS CITY/PLEASANT HILL MO
200 PM CDT SUN JUN 16 2019


MOZ041-047>049-056>058-063>065-088>090-097-162000-
...EASTERN AND SOUTHERN MISSOURI...
  
CITY           SKY/WX    TMP DP  RH WIND       PRES   REMARKS
ST. LOUIS INTL PTSUNNY   81  67  62 N6        29.86S                  
SPIRIT OF STL  PTSUNNY   83  68  60 N3        29.84S                  
COLUMBIA       SUNNY     81  67  62 SW9       29.86S                  
ROLLA          SUNNY     81  66  60 SW6       29.88F                  
OSAGE BEACH    SUNNY     79  63  57 W7        29.88S                  
SPRINGFIELD    CLOUDY    75  65  70 W5        29.89F                  
BRANSON        MOSUNNY   84  64  51 SW6       29.90F                  
JOPLIN         CLOUDY    72  67  84 CALM      29.92F                  
WEST PLAINS    SUNNY     85  68  56 NW6       29.88F                  

$$


SKY/WX - Weather  TMP - Temperature  DP - Dew Point  RH - Relative Humidity
WIND - Wind Direction/Speed PRES - Barometric Pressure VSB - Visibility
WCI - Wind Chill Index E13G22 Wind - East Wind 13 mph/Gusts of 22 mph